Location: Ahstedt
(52.2048°N, 10.1060°E)
Time: 00:03:41
(UTC+00:00)

SL-23 DEB - Pass Details

Date: 18 January 2026
Orbit: 423 x 3435 km, 51.4° (Epoch: 18 February)

Event Time Altitude Azimuth Distance (km) Brightness Sun altitude
Exits shadow 05:58:10 15° 255° (WSW) 1,233 5.1 -11.9°
Maximum altitude 06:00:38 73° 171° (S) 457 3.5 -11.6°
Drops below altitude 10° 06:04:10 10° 86° (E) 1,716 7.5 -11.1°
Sets 06:06:40 0° 85° (E) 2,828 8.8 -10.7°
